ON4LDM-13 Weather Reports


time (UTC)temp
C
wind
direction
speed
KPH
gust
KPH
rain 1hr
cm
rain 24hr
cm
rain mn
cm
humidity
%
barometer
mb
20260502232004 12 0 0.0 0.0 0.00 0.03 0.00 81 1015.6
20260502231504 12 0 0.0 0.0 0.00 0.03 0.00 81 1015.6
20260502231004 12 0 0.0 0.0 0.00 0.03 0.00 82 1015.7
20260502230504 12 0 0.0 0.0 0.00 0.03 0.00 81 1015.7
20260502230004 12 0 0.0 0.0 0.00 0.03 0.00 81 1015.6
20260502225504 12 0 0.0 0.0 0.00 0.03 0.00 81 1015.6
20260502225004 12 0 0.0 0.0 0.00 0.03 0.00 80 1015.6
20260502224504 12 0 0.0 0.0 0.00 0.03 0.00 79 1015.6
20260502223504 13 0 0.0 0.0 0.00 0.03 0.00 79 1015.7
20260502222004 13 0 0.0 0.0 0.00 0.03 0.00 76 1015.8
20260502221504 14 0 0.0 0.0 0.00 0.03 0.00 75 1015.7
20260502220006 15 199 0.0 4.8 0.00 0.03 0.00 68 1015.8
20260502215504 15 189 0.0 4.8 0.00 0.03 0.03 67 1015.8
20260502214504 15 182 1.6 6.4 0.00 0.03 0.03 68 1015.9
20260502214004 14 172 1.6 6.4 0.00 0.03 0.03 71 1015.8
20260502213504 13 172 0.0 6.4 0.00 0.03 0.03 75 1015.9
20260502213004 12 159 0.0 3.2 0.00 0.03 0.03 81 1015.8
20260502212004 12 0 0.0 0.0 0.00 0.03 0.03 88 1015.8
20260502211004 12 0 0.0 0.0 0.00 0.03 0.03 88 1015.9
20260502210503 12 0 0.0 0.0 0.00 0.03 0.03 88 1016.0
20260502210004 12 0 0.0 0.0 0.00 0.03 0.03 88 1015.9
20260502205504 12 0 0.0 0.0 0.00 0.03 0.03 87 1016.0
20260502205003 12 0 0.0 0.0 0.00 0.03 0.03 87 1016.1
20260502204504 12 0 0.0 0.0 0.00 0.03 0.03 87 1016.1
20260502202504 12 0 0.0 0.0 0.00 0.03 0.03 86 1016.1
20260502202004 12 0 0.0 0.0 0.00 0.03 0.03 86 1016.1
20260502201004 13 0 0.0 0.0 0.00 0.03 0.03 86 1016.0
20260502200503 13 0 0.0 0.0 0.00 0.03 0.03 86 1016.1
20260502200004 13 0 0.0 0.0 0.00 0.03 0.03 86 1016.1
20260502195504 13 0 0.0 0.0 0.00 0.03 0.03 86 1016.2
20260502195003 13 0 0.0 0.0 0.00 0.03 0.03 85 1016.1
20260502194504 14 0 0.0 0.0 0.00 0.03 0.03 85 1016.1
20260502194004 14 0 0.0 0.0 0.00 0.03 0.03 84 1016.1
20260502193503 15 0 0.0 0.0 0.00 0.03 0.03 83 1016.1
20260502193004 15 0 0.0 0.0 0.00 0.03 0.03 83 1016.1
20260502192504 15 0 0.0 0.0 0.00 0.03 0.03 82 1016.1
20260502192003 15 0 0.0 0.0 0.00 0.03 0.03 82 1016.1
20260502191504 15 0 0.0 0.0 0.00 0.03 0.03 82 1016.1
20260502191004 16 0 0.0 0.0 0.00 0.03 0.03 81 1016.0
20260502190503 16 0 0.0 0.0 0.00 0.03 0.03 81 1015.9
20260502190004 16 0 0.0 0.0 0.00 0.03 0.03 81 1016.0
20260502185504 16 0 0.0 0.0 0.00 0.03 0.03 80 1016.0
20260502185004 16 0 0.0 0.0 0.00 0.03 0.03 79 1016.0
20260502184004 17 0 0.0 0.0 0.00 0.03 0.03 78 1015.9
20260502183504 17 0 0.0 0.0 0.00 0.03 0.03 78 1015.9
20260502182504 17 0 0.0 0.0 0.00 0.03 0.03 77 1016.0
20260502182004 17 0 0.0 0.0 0.00 0.03 0.03 77 1016.0
20260502181504 18 0 0.0 0.0 0.00 0.03 0.03 76 1016.0
20260502181003 18 0 0.0 0.0 0.00 0.03 0.03 76 1016.0
20260502180503 18 0 0.0 0.0 0.00 0.03 0.03 75 1016.0
20260502170503 21 290 1.6 12.9 0.00 0.03 0.03 64 1016.3
20260502164004 21 164 0.0 3.2 0.00 0.03 0.03 54 1016.3
20260502163004 22 166 0.0 1.6 0.00 0.03 0.03 53 1016.3
20260502162504 22 167 1.6 9.7 0.00 0.03 0.03 53 1016.5
20260502162003 22 168 1.6 9.7 0.00 0.03 0.03 52 1016.5
20260502161504 22 183 1.6 11.3 0.00 0.03 0.03 52 1016.4
20260502161004 22 176 3.2 11.3 0.00 0.03 0.03 51 1016.5
20260502160504 22 171 3.2 9.7 0.00 0.03 0.03 52 1016.5
20260502152004 21 152 1.6 8.0 0.00 0.03 0.03 55 1016.9
20260502151504 21 164 1.6 9.7 0.00 0.03 0.03 55 1016.9
20260502151003 22 177 0.0 9.7 0.00 0.03 0.03 55 1017.0
20260502150503 22 176 1.6 4.8 0.00 0.03 0.03 55 1017.2
20260502130504 23 167 6.4 16.1 0.00 0.03 0.03 60 1018.9
20260502123504 23 187 3.2 11.3 0.00 0.03 0.03 61 1019.0
20260502123004 22 185 4.8 12.9 0.00 0.03 0.03 61 1019.1
20260502122004 22 163 4.8 12.9 0.00 0.03 0.03 60 1019.2
20260502121504 22 169 4.8 12.9 0.00 0.03 0.03 61 1019.4
20260502120504 22 199 6.4 12.9 0.00 0.03 0.03 60 1019.5
20260502115504 22 171 4.8 12.9 0.00 0.03 0.03 60 1019.7
20260502115004 22 156 4.8 11.3 0.00 0.03 0.03 60 1019.8
20260502114504 22 142 3.2 9.7 0.00 0.03 0.03 59 1019.8
20260502113504 22 152 3.2 11.3 0.00 0.03 0.03 59 1020.1
20260502113004 21 178 4.8 12.9 0.00 0.03 0.03 59 1020.1
20260502111504 22 171 4.8 19.3 0.00 0.03 0.03 59 1020.4
20260502111003 21 174 4.8 14.5 0.00 0.03 0.03 60 1020.4
20260502110504 21 159 4.8 11.3 0.00 0.03 0.03 59 1020.4
20260502110004 21 148 4.8 8.0 0.00 0.03 0.03 60 1020.4
20260502105004 21 168 4.8 17.7 0.00 0.03 0.03 57 1020.7
20260502104004 21 164 3.2 11.3 0.00 0.03 0.03 59 1020.7
20260502103504 21 169 3.2 8.0 0.00 0.03 0.03 62 1020.7
20260502103004 20 176 3.2 8.0 0.00 0.03 0.03 64 1020.7
20260502102503 20 171 3.2 8.0 0.00 0.03 0.03 64 1020.8
20260502101504 19 189 1.6 8.0 0.00 0.03 0.03 64 1020.9
20260502101004 19 179 3.2 8.0 0.00 0.03 0.03 64 1020.9
20260502091503 18 90 3.2 11.3 0.00 0.03 0.03 68 1021.2
20260502091004 17 78 4.8 11.3 0.00 0.03 0.03 68 1021.3
20260502090504 17 82 3.2 9.7 0.00 0.03 0.03 67 1021.3
20260502071504 11 0 0.0 0.0 0.03 0.03 0.03 84 1021.6
20260502070004 11 55 1.6 4.8 0.03 0.03 0.03 83 1021.6
20260502065503 11 63 1.6 4.8 0.00 0.00 0.00 83 1021.6
20260502065004 11 62 1.6 4.8 0.00 0.00 0.00 83 1021.6
20260502064504 11 67 0.0 4.8 0.00 0.00 0.00 83 1022.0
20260502064003 10 60 0.0 3.2 0.00 0.00 0.00 83 1021.8
20260502063504 10 57 0.0 3.2 0.00 0.00 0.00 82 1021.9
20260502063004 10 56 0.0 3.2 0.00 0.00 0.00 83 1021.6
20260502062503 10 0 0.0 0.0 0.00 0.00 0.00 84 1021.6
20260502062003 10 0 0.0 0.0 0.00 0.00 0.00 83 1021.6
20260502061504 10 0 0.0 0.0 0.00 0.00 0.00 83 1021.5
20260502061004 10 42 0.0 3.2 0.00 0.00 0.00 84 1021.6
20260502060504 9 42 0.0 3.2 0.00 0.00 0.00 84 1021.6
20260502055004 9 81 3.2 6.4 0.00 0.00 0.00 85 1021.8
20260502054503 9 86 3.2 6.4 0.00 0.00 0.00 83 1021.9
20260502054003 9 90 1.6 4.8 0.00 0.00 0.00 82 1021.9
20260502053503 9 0 0.0 0.0 0.00 0.00 0.00 83 1021.8
20260502053004 9 0 0.0 0.0 0.00 0.00 0.00 83 1021.9
20260502052504 9 0 0.0 0.0 0.00 0.00 0.00 82 1022.2
20260502052003 9 0 0.0 0.0 0.00 0.00 0.00 83 1022.2
20260502051503 8 0 0.0 0.0 0.00 0.00 0.00 82 1022.2
20260502051003 8 0 0.0 0.0 0.00 0.00 0.00 82 1022.2
20260502050504 8 0 0.0 0.0 0.00 0.00 0.00 81 1022.3
20260502050004 8 0 0.0 0.0 0.00 0.00 0.00 82 1022.3
20260502045504 8 0 0.0 0.0 0.00 0.00 0.00 82 1022.4
20260502045003 8 0 0.0 0.0 0.00 0.00 0.00 83 1022.3
20260502044504 7 213 0.0 1.6 0.00 0.00 0.00 84 1022.4
20260502044004 7 226 0.0 4.8 0.00 0.00 0.00 84 1022.2
20260502043504 7 227 0.0 4.8 0.00 0.00 0.00 85 1022.4
20260502042503 7 0 0.0 0.0 0.00 0.00 0.00 85 1021.8
20260502042003 7 0 0.0 0.0 0.00 0.00 0.00 84 1021.8
20260502041504 7 0 0.0 0.0 0.00 0.00 0.00 84 1021.7
20260502041003 7 0 0.0 0.0 0.00 0.00 0.00 84 1021.7
20260502040503 7 0 0.0 0.0 0.00 0.00 0.00 84 1021.6
20260502040004 7 84 0.0 1.6 0.00 0.00 0.00 83 1021.6
20260502035504 7 84 0.0 1.6 0.00 0.00 0.00 84 1021.6
20260502035003 7 83 0.0 1.6 0.00 0.00 0.00 84 1021.5
20260502034503 6 84 0.0 3.2 0.00 0.00 0.00 84 1021.6
20260502034003 6 85 0.0 3.2 0.00 0.00 0.00 84 1021.7
20260502033503 6 85 0.0 3.2 0.00 0.00 0.00 84 1021.7
20260502033004 6 0 0.0 0.0 0.00 0.00 0.00 84 1021.7
20260502032504 6 0 0.0 0.0 0.00 0.00 0.00 84 1021.7
20260502032004 6 0 0.0 0.0 0.00 0.00 0.00 84 1021.8
20260502031003 6 0 0.0 0.0 0.00 0.00 0.00 84 1021.9
20260502030504 6 0 0.0 0.0 0.00 0.00 0.00 84 1021.8
20260502030004 6 0 0.0 0.0 0.00 0.00 0.00 84 1021.9
20260502025504 6 81 0.0 1.6 0.00 0.00 0.00 84 1022.0
20260502025003 6 81 0.0 1.6 0.00 0.00 0.00 84 1022.2
20260502024504 6 0 0.0 0.0 0.00 0.00 0.00 84 1022.2
20260502022503 5 234 1.6 11.3 0.00 0.00 0.00 86 1022.7
20260502022004 5 224 1.6 11.3 0.00 0.00 0.00 86 1022.8
20260502021504 5 0 0.0 0.0 0.00 0.00 0.00 85 1022.0
20260502021003 5 0 0.0 0.0 0.00 0.00 0.00 85 1021.9
20260502020503 5 0 0.0 0.0 0.00 0.00 0.00 85 1022.0
20260502020004 5 118 0.0 1.6 0.00 0.00 0.00 85 1022.1
20260502015503 5 118 0.0 1.6 0.00 0.00 0.00 85 1022.0
20260502015004 5 0 0.0 0.0 0.00 0.00 0.00 85 1022.0
20260502014504 5 0 0.0 0.0 0.00 0.00 0.00 85 1022.1
20260502014003 5 0 0.0 0.0 0.00 0.00 0.00 84 1022.1
20260502013504 5 0 0.0 0.0 0.00 0.00 0.00 84 1022.1
20260502013003 5 0 0.0 0.0 0.00 0.00 0.00 84 1022.2
20260502012004 5 0 0.0 0.0 0.00 0.00 0.00 84 1022.2
20260502011004 5 0 0.0 0.0 0.00 0.00 0.00 83 1022.3
20260502010503 6 0 0.0 0.0 0.00 0.00 0.00 83 1022.4
20260502010004 6 0 0.0 0.0 0.00 0.00 0.00 83 1022.4
20260502005504 6 0 0.0 0.0 0.00 0.00 0.00 82 1022.4
20260502005003 6 0 0.0 0.0 0.00 0.00 0.00 82 1022.4
20260502004504 6 0 0.0 0.0 0.00 0.00 0.00 83 1022.5
20260502004004 6 0 0.0 0.0 0.00 0.00 0.00 82 1022.4
20260502003503 6 0 0.0 0.0 0.00 0.00 0.00 82 1022.5
20260502002504 6 0 0.0 0.0 0.00 0.00 0.00 82 1022.4
20260502002003 6 106 0.0 1.6 0.00 0.00 0.00 81 1022.5
20260502001504 6 106 0.0 1.6 0.00 0.00 0.00 81 1022.5
20260502000503 6 122 0.0 3.2 0.00 0.00 0.00 80 1022.7
20260501234504 6 144 0.0 3.2 0.00 0.00 0.00 84 1023.1
20260501234004 5 162 0.0 3.2 0.00 0.00 0.00 85 1023.1
20260501233503 5 185 0.0 3.2 0.00 0.00 0.00 84 1023.1
20260501233004 5 0 0.0 0.0 0.00 0.00 0.00 84 1022.9
20260501232504 5 0 0.0 0.0 0.00 0.00 0.00 83 1022.8